Retour au catalogue

THORAD AGENA D DEB

ActifPO
NORAD 4857·DEBRIS·🇺🇸 United States

Lancé Apr 8, 1970 depuis Vandenberg Space Force Base

Loading…

Prochains Passages (prochaines 24 heures)

TLE

FraisSource: Space-Track

Époque: Sep 14, 2026, 05:23 UTC

1 04857U 70025EM  26257.22433975  .00001681  00000-0  66324-3 0  9995
2 04857  99.7322 173.4454 0042200 211.8569 148.0056 14.30198192835688

Suivez THORAD AGENA D DEB en temps réel avec AllMySat

Download on the App Store